Location: Burgberg
(50.1428°N, 11.0671°E)
Time: 18:22:57
(UTC+00:00)

STARLINK-61 - Pass Details

Date: 26 January 2020
Orbit: 506 x 517 km, 53.0° (Epoch: 16 February)

Event Time Altitude Azimuth Distance (km) Brightness Sun altitude
Exits shadow 04:55:39 54° 306° (NW) 636 3.5 -19.5°
Maximum altitude 04:56:14 62° 349° (N) 586 3.6 -19.4°
Drops below altitude 10° 05:00:11 10° 71° (ENE) 1,751 7.1 -18.8°
Sets 05:02:24 0° 75° (ENE) 2,640 8.3 -18.4°
